Time,TemperatureF,DewpointF,PressureIn,WindDirection,WindDirectionDegrees,WindSpeedMPH,WindSpeedGustMPH,Humidity,HourlyPrecipIn,Conditions,Clouds,dailyrainin,SoftwareType,DateUTC
2013-01-28 00:07:00,31.3,27.0,30.48,South,170,0.0,3.0,83,0.00,,,0.00,weatherlink.com 1.10,2013-01-28 05:07:00,
2013-01-28 00:22:00,31.1,27.0,30.48,South,170,0.0,1.0,83,0.00,,,0.00,weatherlink.com 1.10,2013-01-28 05:22:00,
2013-01-28 00:37:00,30.9,27.0,30.48,South,170,1.0,3.0,84,0.00,,,0.00,weatherlink.com 1.10,2013-01-28 05:37:00,
2013-01-28 00:52:00,30.8,27.0,30.47,South,173,1.0,7.0,85,0.00,,,0.00,weatherlink.com 1.10,2013-01-28 05:52:00,
2013-01-28 01:07:00,30.6,27.0,30.47,SW,219,1.0,5.0,86,0.00,,,0.00,weatherlink.com 1.10,2013-01-28 06:07:00,
2013-01-28 01:22:00,30.5,27.0,30.46,SSE,161,0.0,5.0,87,0.00,,,0.00,weatherlink.com 1.10,2013-01-28 06:22:00,
2013-01-28 01:37:00,30.7,28.0,30.46,SSE,163,2.0,6.0,89,0.00,,,0.00,weatherlink.com 1.10,2013-01-28 06:37:00,
2013-01-28 01:52:00,31.0,28.0,30.46,SSW,203,0.0,5.0,89,0.00,,,0.00,weatherlink.com 1.10,2013-01-28 06:52:00,
2013-01-28 02:07:00,31.4,29.0,30.45,SSW,197,1.0,6.0,89,0.00,,,0.00,weatherlink.com 1.10,2013-01-28 07:07:00,
2013-01-28 02:22:00,31.8,29.0,30.46,SSE,165,2.0,8.0,89,0.00,,,0.00,weatherlink.com 1.10,2013-01-28 07:22:00,
2013-01-28 02:37:00,32.1,29.0,30.46,SSW,209,1.0,6.0,89,0.00,,,0.00,weatherlink.com 1.10,2013-01-28 07:37:00,
2013-01-28 02:52:00,32.4,30.0,30.46,SSE,162,1.0,8.0,89,0.00,,,0.00,weatherlink.com 1.10,2013-01-28 07:52:00,
2013-01-28 03:08:00,32.5,30.0,30.46,South,173,1.0,6.0,89,0.00,,,0.00,weatherlink.com 1.10,2013-01-28 08:08:00,
2013-01-28 03:22:00,32.6,30.0,30.46,SW,232,0.0,6.0,89,0.00,,,0.00,weatherlink.com 1.10,2013-01-28 08:22:00,
2013-01-28 03:37:00,32.7,30.0,30.46,SSW,212,3.0,6.0,89,0.00,,,0.00,weatherlink.com 1.10,2013-01-28 08:37:00,
2013-01-28 03:52:00,32.8,30.0,30.45,SSE,157,2.0,5.0,89,0.00,,,0.00,weatherlink.com 1.10,2013-01-28 08:52:00,
2013-01-28 04:07:00,32.8,30.0,30.45,SSW,194,4.0,7.0,89,0.00,,,0.00,weatherlink.com 1.10,2013-01-28 09:07:00,
2013-01-28 04:24:00,32.8,30.0,30.44,SW,215,1.0,5.0,88,0.00,,,0.00,weatherlink.com 1.10,2013-01-28 09:24:00,
2013-01-28 04:38:00,32.8,30.0,30.43,South,177,5.0,9.0,88,0.00,,,0.00,weatherlink.com 1.10,2013-01-28 09:38:00,
2013-01-28 04:52:00,32.9,30.0,30.44,SSW,212,3.0,12.0,88,0.00,,,0.00,weatherlink.com 1.10,2013-01-28 09:52:00,
2013-01-28 05:07:00,33.0,30.0,30.43,South,180,3.0,8.0,89,0.00,,,0.00,weatherlink.com 1.10,2013-01-28 10:07:00,
2013-01-28 05:22:00,33.1,30.0,30.44,South,188,1.0,10.0,89,0.00,,,0.00,weatherlink.com 1.10,2013-01-28 10:22:00,
2013-01-28 05:37:00,33.0,30.0,30.43,South,189,1.0,7.0,89,0.00,,,0.00,weatherlink.com 1.10,2013-01-28 10:37:00,
2013-01-28 05:52:00,33.0,30.0,30.43,SSW,192,1.0,7.0,90,0.00,,,0.00,weatherlink.com 1.10,2013-01-28 10:52:00,
2013-01-28 06:07:00,33.0,30.0,30.43,SSE,167,2.0,4.0,90,0.00,,,0.00,weatherlink.com 1.10,2013-01-28 11:07:00,
2013-01-28 06:22:00,32.9,30.0,30.43,SW,222,3.0,5.0,90,0.00,,,0.00,weatherlink.com 1.10,2013-01-28 11:22:00,
2013-01-28 06:37:00,32.9,31.0,30.44,SW,225,0.0,3.0,91,0.00,,,0.00,weatherlink.com 1.10,2013-01-28 11:37:00,
2013-01-28 06:52:00,32.9,31.0,30.44,South,187,1.0,4.0,91,0.00,,,0.00,weatherlink.com 1.10,2013-01-28 11:52:00,
2013-01-28 07:07:00,32.9,31.0,30.43,South,184,1.0,5.0,92,0.00,,,0.00,weatherlink.com 1.10,2013-01-28 12:07:00,
2013-01-28 07:22:00,33.0,31.0,30.43,SSW,202,1.0,6.0,92,0.00,,,0.00,weatherlink.com 1.10,2013-01-28 12:22:00,
2013-01-28 07:38:00,33.0,31.0,30.44,SSW,204,1.0,5.0,92,0.00,,,0.00,weatherlink.com 1.10,2013-01-28 12:38:00,
2013-01-28 07:53:00,33.1,31.0,30.44,SW,234,0.0,7.0,92,0.00,,,0.00,weatherlink.com 1.10,2013-01-28 12:53:00,
2013-01-28 08:08:00,33.1,31.0,30.44,SSW,210,2.0,4.0,92,0.00,,,0.00,weatherlink.com 1.10,2013-01-28 13:08:00,
2013-01-28 08:23:00,33.3,32.0,30.45,SW,229,1.0,6.0,93,0.00,,,0.00,weatherlink.com 1.10,2013-01-28 13:23:00,
2013-01-28 08:38:00,33.4,32.0,30.44,SW,224,1.0,5.0,93,0.01,,,0.01,weatherlink.com 1.10,2013-01-28 13:38:00,
2013-01-28 08:53:00,33.8,32.0,30.44,SW,217,2.0,6.0,93,0.01,,,0.01,weatherlink.com 1.10,2013-01-28 13:53:00,
2013-01-28 09:08:00,34.2,32.0,30.44,WSW,238,2.0,7.0,93,0.03,,,0.03,weatherlink.com 1.10,2013-01-28 14:08:00,
2013-01-28 09:24:00,34.8,33.0,30.43,SSW,194,2.0,7.0,93,0.03,,,0.03,weatherlink.com 1.10,2013-01-28 14:24:00,
2013-01-28 09:38:00,37.2,34.0,30.43,SW,214,4.0,10.0,87,0.02,,,0.03,weatherlink.com 1.10,2013-01-28 14:38:00,
2013-01-28 09:53:00,37.6,33.0,30.42,SW,234,5.0,9.0,84,0.02,,,0.03,weatherlink.com 1.10,2013-01-28 14:53:00,
2013-01-28 10:08:00,39.1,34.0,30.42,WSW,238,2.0,8.0,82,0.00,,,0.03,weatherlink.com 1.10,2013-01-28 15:08:00,
2013-01-28 10:23:00,40.3,34.0,30.42,SW,217,7.0,11.0,79,0.00,,,0.03,weatherlink.com 1.10,2013-01-28 15:23:00,
2013-01-28 10:38:00,40.7,34.0,30.41,WSW,248,1.0,13.0,77,0.00,,,0.03,weatherlink.com 1.10,2013-01-28 15:38:00,
2013-01-28 10:53:00,41.4,35.0,30.41,South,190,1.0,7.0,78,0.00,,,0.03,weatherlink.com 1.10,2013-01-28 15:53:00,
2013-01-28 11:08:00,41.6,35.0,30.40,SSW,202,4.0,8.0,77,0.00,,,0.03,weatherlink.com 1.10,2013-01-28 16:08:00,
2013-01-28 11:23:00,42.7,36.0,30.40,SSW,200,4.0,6.0,76,0.00,,,0.03,weatherlink.com 1.10,2013-01-28 16:23:00,
2013-01-28 11:38:00,44.6,36.0,30.39,SW,233,5.0,9.0,71,0.00,,,0.03,weatherlink.com 1.10,2013-01-28 16:38:00,
2013-01-28 11:54:00,45.2,36.0,30.38,WSW,240,0.0,7.0,70,0.01,,,0.04,weatherlink.com 1.10,2013-01-28 16:54:00,
2013-01-28 12:09:00,46.5,37.0,30.36,SW,227,4.0,9.0,70,0.01,,,0.04,weatherlink.com 1.10,2013-01-28 17:09:00,
2013-01-28 12:23:00,47.4,37.0,30.35,SW,236,2.0,7.0,68,0.01,,,0.04,weatherlink.com 1.10,2013-01-28 17:23:00,
2013-01-28 12:39:00,48.6,38.0,30.34,South,188,2.0,11.0,66,0.01,,,0.04,weatherlink.com 1.10,2013-01-28 17:39:00,
2013-01-28 12:54:00,50.1,38.0,30.32,WNW,284,8.0,12.0,63,0.00,,,0.04,weatherlink.com 1.10,2013-01-28 17:54:00,
2013-01-28 13:09:00,51.5,38.0,30.31,SSW,207,7.0,15.0,60,0.00,,,0.04,weatherlink.com 1.10,2013-01-28 18:09:00,
2013-01-28 13:24:00,50.1,37.0,30.30,SSW,210,6.0,14.0,61,0.00,,,0.04,weatherlink.com 1.10,2013-01-28 18:24:00,
2013-01-28 13:39:00,49.6,38.0,30.29,SSW,213,7.0,12.0,64,0.00,,,0.04,weatherlink.com 1.10,2013-01-28 18:39:00,
2013-01-28 13:54:00,49.2,38.0,30.29,SW,231,6.0,12.0,66,0.00,,,0.04,weatherlink.com 1.10,2013-01-28 18:54:00,
2013-01-28 14:09:00,48.7,37.0,30.28,South,182,3.0,10.0,65,0.00,,,0.04,weatherlink.com 1.10,2013-01-28 19:09:00,
2013-01-28 14:24:00,48.6,37.0,30.27,WSW,250,7.0,10.0,65,0.00,,,0.04,weatherlink.com 1.10,2013-01-28 19:24:00,
2013-01-28 14:39:00,48.9,38.0,30.27,SSW,194,4.0,10.0,65,0.00,,,0.04,weatherlink.com 1.10,2013-01-28 19:39:00,
2013-01-28 14:54:00,49.3,38.0,30.27,WSW,252,2.0,9.0,66,0.00,,,0.04,weatherlink.com 1.10,2013-01-28 19:54:00,
2013-01-28 15:09:00,49.7,39.0,30.26,South,176,4.0,9.0,67,0.00,,,0.04,weatherlink.com 1.10,2013-01-28 20:09:00,
2013-01-28 15:24:00,49.7,39.0,30.26,South,177,3.0,11.0,67,0.00,,,0.04,weatherlink.com 1.10,2013-01-28 20:24:00,
2013-01-28 15:39:00,49.9,40.0,30.25,South,182,2.0,10.0,69,0.00,,,0.04,weatherlink.com 1.10,2013-01-28 20:39:00,
2013-01-28 15:54:00,50.0,41.0,30.25,SW,229,4.0,10.0,71,0.00,,,0.04,weatherlink.com 1.10,2013-01-28 20:54:00,
2013-01-28 16:09:00,50.1,41.0,30.25,SSW,199,3.0,9.0,72,0.00,,,0.04,weatherlink.com 1.10,2013-01-28 21:09:00,
2013-01-28 16:24:00,50.0,42.0,30.25,SSE,168,7.0,12.0,73,0.00,,,0.04,weatherlink.com 1.10,2013-01-28 21:24:00,
2013-01-28 16:39:00,49.8,42.0,30.25,SW,215,7.0,9.0,74,0.00,,,0.04,weatherlink.com 1.10,2013-01-28 21:39:00,
2013-01-28 16:54:00,49.5,42.0,30.25,WSW,243,6.0,7.0,74,0.00,,,0.04,weatherlink.com 1.10,2013-01-28 21:54:00,
2013-01-28 17:09:00,49.1,41.0,30.25,SSW,205,6.0,7.0,74,0.00,,,0.04,weatherlink.com 1.10,2013-01-28 22:09:00,
2013-01-28 17:24:00,48.8,41.0,30.25,SSW,200,5.0,8.0,74,0.00,,,0.04,weatherlink.com 1.10,2013-01-28 22:24:00,
2013-01-28 17:39:00,48.4,41.0,30.25,SSW,205,5.0,8.0,75,0.00,,,0.04,weatherlink.com 1.10,2013-01-28 22:39:00,
2013-01-28 17:54:00,48.1,41.0,30.25,SSW,200,5.0,12.0,76,0.00,,,0.04,weatherlink.com 1.10,2013-01-28 22:54:00,
2013-01-28 18:09:00,47.8,41.0,30.25,SSW,195,6.0,7.0,77,0.00,,,0.04,weatherlink.com 1.10,2013-01-28 23:09:00,
2013-01-28 18:24:00,47.5,41.0,30.25,SSW,207,3.0,7.0,78,0.00,,,0.04,weatherlink.com 1.10,2013-01-28 23:24:00,
2013-01-28 18:39:00,47.3,41.0,30.25,WSW,252,1.0,8.0,79,0.00,,,0.04,weatherlink.com 1.10,2013-01-28 23:39:00,
2013-01-28 18:54:00,47.1,41.0,30.25,SSW,200,3.0,9.0,80,0.00,,,0.04,weatherlink.com 1.10,2013-01-28 23:54:00,
2013-01-28 19:09:00,46.9,42.0,30.25,WSW,237,10.0,11.0,82,0.00,,,0.04,weatherlink.com 1.10,2013-01-29 00:09:00,
2013-01-28 19:24:00,46.9,42.0,30.25,SSW,209,1.0,11.0,84,0.00,,,0.04,weatherlink.com 1.10,2013-01-29 00:24:00,
2013-01-28 19:39:00,46.9,43.0,30.25,SSW,211,3.0,8.0,85,0.00,,,0.04,weatherlink.com 1.10,2013-01-29 00:39:00,
2013-01-28 19:54:00,47.0,43.0,30.24,SSW,211,2.0,9.0,86,0.00,,,0.04,weatherlink.com 1.10,2013-01-29 00:54:00,
2013-01-28 20:09:00,47.0,43.0,30.24,SSW,199,2.0,9.0,87,0.00,,,0.04,weatherlink.com 1.10,2013-01-29 01:09:00,
2013-01-28 20:24:00,47.1,44.0,30.23,SSW,212,7.0,11.0,88,0.00,,,0.04,weatherlink.com 1.10,2013-01-29 01:24:00,
2013-01-28 20:39:00,47.1,44.0,30.23,WSW,237,1.0,8.0,88,0.00,,,0.04,weatherlink.com 1.10,2013-01-29 01:39:00,
2013-01-28 20:54:00,47.1,44.0,30.23,South,186,6.0,7.0,89,0.00,,,0.04,weatherlink.com 1.10,2013-01-29 01:54:00,
2013-01-28 21:09:00,47.1,44.0,30.23,SSW,205,2.0,8.0,89,0.00,,,0.04,weatherlink.com 1.10,2013-01-29 02:09:00,
2013-01-28 21:24:00,47.1,44.0,30.22,SW,223,1.0,9.0,90,0.00,,,0.04,weatherlink.com 1.10,2013-01-29 02:24:00,
2013-01-28 21:39:00,47.2,45.0,30.22,SW,217,9.0,12.0,90,0.00,,,0.04,weatherlink.com 1.10,2013-01-29 02:39:00,
2013-01-28 21:54:00,47.3,45.0,30.22,WSW,248,5.0,9.0,91,0.00,,,0.04,weatherlink.com 1.10,2013-01-29 02:54:00,
2013-01-28 22:09:00,47.4,45.0,30.21,SW,224,2.0,7.0,91,0.00,,,0.04,weatherlink.com 1.10,2013-01-29 03:09:00,
2013-01-28 22:24:00,47.3,45.0,30.21,SSW,212,4.0,8.0,91,0.00,,,0.04,weatherlink.com 1.10,2013-01-29 03:24:00,
2013-01-28 22:39:00,47.3,45.0,30.20,SSW,200,2.0,8.0,92,0.00,,,0.04,weatherlink.com 1.10,2013-01-29 03:39:00,
2013-01-28 22:54:00,47.4,45.0,30.21,SSW,192,3.0,12.0,92,0.00,,,0.04,weatherlink.com 1.10,2013-01-29 03:54:00,
2013-01-28 23:09:00,47.5,46.0,30.20,WSW,239,3.0,16.0,93,0.00,,,0.04,weatherlink.com 1.10,2013-01-29 04:09:00,
2013-01-28 23:24:00,47.5,46.0,30.20,SW,225,3.0,15.0,93,0.00,,,0.04,weatherlink.com 1.10,2013-01-29 04:24:00,
2013-01-28 23:40:00,47.5,46.0,30.20,SSW,213,5.0,15.0,93,0.00,,,0.04,weatherlink.com 1.10,2013-01-29 04:40:00,
2013-01-28 23:54:00,47.5,46.0,30.21,WSW,246,0.0,10.0,93,0.00,,,0.04,weatherlink.com 1.10,2013-01-29 04:54:00,